Tampa, FL

6:43 PM EST on February 05, 2016 (GMT -0500)
Tampa International

Weather History for KTPA - October, 2011

Change the Weather History Date:

Thursday, October 13, 2011

  Actual Average Record
Temperature  
Mean Temperature 79 °F 77 °F  
Max Temperature 84 °F 85 °F 91 °F (1959)
Min Temperature 73 °F 69 °F 53 °F (1980)
Degree Days  
Heating Degree Days 0 0  
Month to date heating degree days 0 0  
Since 1 July heating degree days 0 0  
Cooling Degree Days 14 12  
Month to date cooling degree days 146 173  
Year to date cooling degree days 3554 3189  
Growing Degree Days 28 (Base 50)    
Moisture  
Dew Point 72 °F    
Average Humidity 79    
Maximum Humidity 93    
Minimum Humidity 65    
Precipitation  
Precipitation 0.09 in 0.07 in 3.02 in (1938)
Month to date precipitation 2.00 1.22  
Year to date precipitation 50.62 41.24  
Sea Level Pressure  
Sea Level Pressure 29.81 in    
Wind  
Wind Speed 5 mph (WSW)    
Max Wind Speed 17 mph    
Max Gust Speed 23 mph    
Visibility 9 miles    
Events Rain    
T = Trace of Precipitation, MM = Missing Value Source: NWS Daily Summary

Daily Weather History Graph

Daily Weather History Graph

Search for Another Location

Airport or City:

Trip Planner

Search our weather history database for the weather conditions in past years. The results will help you decide how hot, cold, wet, or windy it might be!

Date:

Astronomy

Oct. 13, 2011 Rise Set
Actual Time 7:29 AM EDT 7:03 PM EDT
Civil Twilight 7:05 AM EDT 7:26 PM EDT
Nautical Twilight 6:38 AM EDT 7:53 PM EDT
Astronomical Twilight 6:11 AM EDT 8:21 PM EDT
Moon 7:52 PM EDT (10/13) 8:46 AM EDT (10/13)
Length of Visible Light 12h 21m
Length of Day
11h 34m
Full, 98% of the Moon is Illuminated
Oct 13
Full
Oct 19
Last Quarter
Oct 26
New
Nov 2
First Quarter
Nov 10
Full

Hourly Weather History & Observations

Time (EDT) Temp. Heat Index Dew Point Humidity Pressure Visibility Wind Dir Wind Speed Gust Speed Precip Events Conditions
12:53 AM 78.1 °F - 71.1 °F 79% 29.84 in 10.0 mi Calm Calm - N/A   Mostly Cloudy
1:53 AM 77.0 °F - 73.4 °F 89% 29.83 in 10.0 mi Calm Calm - N/A   Mostly Cloudy
2:53 AM 77.0 °F - 73.0 °F 88% 29.83 in 10.0 mi SSW 3.5 mph - N/A   Mostly Cloudy
3:53 AM 77.0 °F - 73.9 °F 90% 29.81 in 10.0 mi Calm Calm - N/A   Mostly Cloudy
4:53 AM 77.0 °F - 73.0 °F 88% 29.80 in 10.0 mi South 3.5 mph - N/A   Mostly Cloudy
5:53 AM 77.0 °F - 73.0 °F 88% 29.81 in 10.0 mi Calm Calm - N/A   Mostly Cloudy
6:53 AM 77.0 °F - 73.0 °F 88% 29.81 in 10.0 mi Calm Calm - N/A   Mostly Cloudy
7:53 AM 78.1 °F - 73.9 °F 87% 29.83 in 10.0 mi Calm Calm - 0.00 in Rain Light Rain
8:08 AM 73.4 °F - 69.8 °F 88% 29.83 in 5.0 mi West 16.1 mph 23.0 mph 0.00 in Rain Light Rain
8:37 AM 75.2 °F - 71.6 °F 89% 29.84 in 5.0 mi West 9.2 mph - 0.03 in Rain Light Rain
8:53 AM 73.9 °F - 71.1 °F 91% 29.83 in 3.0 mi West 9.2 mph - 0.07 in Rain Light Rain
9:38 AM 75.2 °F - 71.6 °F 89% 29.84 in 10.0 mi WSW 5.8 mph - 0.02 in Rain Light Rain
9:53 AM 75.2 °F - 71.6 °F 89% 29.83 in 10.0 mi WSW 4.6 mph - N/A Rain Light Rain
10:53 AM 75.9 °F - 68.0 °F 76% 29.83 in 10.0 mi WSW 4.6 mph - 0.00 in   Overcast
11:53 AM 77.0 °F - 69.1 °F 76% 29.84 in 10.0 mi SW 4.6 mph - N/A   Mostly Cloudy
12:53 PM 81.0 °F 84.9 °F 71.1 °F 72% 29.83 in 10.0 mi Variable 4.6 mph - N/A   Mostly Cloudy
1:53 PM 81.0 °F 84.9 °F 71.1 °F 72% 29.81 in 10.0 mi SW 3.5 mph - N/A   Scattered Clouds
2:53 PM 82.4 °F 86.3 °F 69.8 °F 66% 29.78 in 10.0 mi SW 5.8 mph - N/A   Scattered Clouds
3:53 PM 82.9 °F 87.5 °F 71.1 °F 67% 29.77 in 10.0 mi South 9.2 mph - N/A   Scattered Clouds
4:53 PM 82.9 °F 87.5 °F 71.1 °F 67% 29.75 in 10.0 mi SW 6.9 mph - N/A   Scattered Clouds
5:53 PM 82.0 °F 85.9 °F 70.0 °F 67% 29.75 in 10.0 mi WSW 9.2 mph - N/A   Scattered Clouds
6:53 PM 79.0 °F - 70.0 °F 74% 29.75 in 10.0 mi WSW 8.1 mph - N/A   Partly Cloudy
7:53 PM 78.1 °F - 72.0 °F 81% 29.77 in 10.0 mi WSW 5.8 mph - N/A   Partly Cloudy
8:53 PM 78.1 °F - 72.0 °F 81% 29.79 in 10.0 mi WSW 6.9 mph - N/A   Partly Cloudy
9:53 PM 78.1 °F - 72.0 °F 81% 29.81 in 10.0 mi WSW 6.9 mph - N/A   Partly Cloudy
10:53 PM 78.1 °F - 72.0 °F 81% 29.83 in 10.0 mi WSW 8.1 mph - N/A   Partly Cloudy
11:53 PM 78.1 °F - 72.0 °F 81% 29.83 in 10.0 mi West 4.6 mph - N/A   Partly Cloudy